OTF2 LEZL-LEBB

Flight info

Callsign OTF2
Flight time 1h 9m
Altitude 34000
Route HIJ DCT PARKA DCT TLD DCT SIE DCT EDIGO N858 DGO
Aircraft A320/M-SDE3FGHIRWY/LB1

Departure

Time 2026-03-27 11:24
Airport Seville Airport (LEZL)

Arrival

Time 2026-03-27 12:33
Airport Bilbao Airport (LEBB)
Time Latitude Longitude Altitude Speed Heading
2026-03-27 10:50 37.42116 -5.90184 120 ft 0 kts 70°
2026-03-27 11:15 37.42116 -5.90183 120 ft 0 kts 70°
2026-03-27 11:15 37.42116 -5.90176 117 ft 1 kts 96°
2026-03-27 11:15 37.42106 -5.90161 117 ft 3 kts 149°
2026-03-27 11:15 37.42085 -5.90165 118 ft 4 kts 188°
2026-03-27 11:16 37.42056 -5.90183 116 ft 5 kts 244°
2026-03-27 11:16 37.42052 -5.90237 120 ft 7 kts 269°
2026-03-27 11:16 37.42041 -5.90293 116 ft 7 kts 226°
2026-03-27 11:16 37.41989 -5.90309 118 ft 7 kts 200°
2026-03-27 11:17 37.41978 -5.90372 120 ft 9 kts 271°
2026-03-27 11:17 37.41979 -5.90458 120 ft 11 kts 269°
2026-03-27 11:17 37.41977 -5.90557 120 ft 12 kts 270°
2026-03-27 11:17 37.41977 -5.90670 120 ft 14 kts 270°
2026-03-27 11:18 37.41977 -5.90800 118 ft 17 kts 270°
2026-03-27 11:18 37.41971 -5.90945 115 ft 14 kts 249°
2026-03-27 11:18 37.41921 -5.91049 113 ft 11 kts 239°
2026-03-27 11:18 37.41896 -5.91101 116 ft 0 kts 239°
2026-03-27 11:22 37.41893 -5.91108 116 ft 2 kts 239°
2026-03-27 11:22 37.41883 -5.91129 115 ft 4 kts 238°
2026-03-27 11:23 37.41866 -5.91164 115 ft 6 kts 238°
2026-03-27 11:23 37.41826 -5.91192 117 ft 8 kts 185°
2026-03-27 11:23 37.41789 -5.91143 114 ft 9 kts 97°
2026-03-27 11:23 37.41788 -5.90969 118 ft 45 kts 89°
2026-03-27 11:24 37.41791 -5.90300 123 ft 105 kts 90°
2026-03-27 11:24 37.41795 -5.89172 119 ft 151 kts 90°
2026-03-27 11:24 37.41810 -5.87774 575 ft 156 kts 86°
2026-03-27 11:24 37.41785 -5.86401 1225 ft 158 kts 89°
2026-03-27 11:25 37.41746 -5.84941 1558 ft 179 kts 88°
2026-03-27 11:25 37.41708 -5.83282 1855 ft 202 kts 88°
2026-03-27 11:25 37.41770 -5.81417 2225 ft 223 kts 77°
2026-03-27 11:25 37.42199 -5.79463 2836 ft 238 kts 74°
2026-03-27 11:26 37.42649 -5.77440 3682 ft 244 kts 70°
2026-03-27 11:26 37.43673 -5.75717 4437 ft 256 kts 36°
2026-03-27 11:26 37.45319 -5.74790 5325 ft 262 kts 24°
2026-03-27 11:26 37.46984 -5.73872 6234 ft 262 kts 28°
2026-03-27 11:27 37.48632 -5.72856 7090 ft 264 kts 28°
2026-03-27 11:27 37.50277 -5.71812 7941 ft 267 kts 28°
2026-03-27 11:27 37.51943 -5.70756 8759 ft 270 kts 28°
2026-03-27 11:27 37.53632 -5.69699 9601 ft 272 kts 27°
2026-03-27 11:28 37.55343 -5.68639 10336 ft 277 kts 27°
2026-03-27 11:28 37.57139 -5.67535 10605 ft 299 kts 27°
2026-03-27 11:28 37.59078 -5.66352 10840 ft 319 kts 27°
2026-03-27 11:28 37.61107 -5.65118 11409 ft 326 kts 26°
2026-03-27 11:29 37.63164 -5.63871 12076 ft 330 kts 26°
2026-03-27 11:29 37.65273 -5.62593 12762 ft 333 kts 26°
2026-03-27 11:29 37.67371 -5.61321 13445 ft 337 kts 26°
2026-03-27 11:29 37.69493 -5.60031 14087 ft 340 kts 26°
2026-03-27 11:30 37.71634 -5.58728 14693 ft 343 kts 27°
2026-03-27 11:30 37.73794 -5.57413 15299 ft 346 kts 27°
2026-03-27 11:30 37.75969 -5.56089 15895 ft 349 kts 27°
2026-03-27 11:30 37.78161 -5.54754 16480 ft 351 kts 27°
2026-03-27 11:31 37.80375 -5.53410 17058 ft 355 kts 27°
2026-03-27 11:31 37.82611 -5.52049 17644 ft 358 kts 27°
2026-03-27 11:31 37.84865 -5.50671 18232 ft 361 kts 27°
2026-03-27 11:31 37.87132 -5.49284 18762 ft 364 kts 27°
2026-03-27 11:32 37.89458 -5.47862 19312 ft 367 kts 27°
2026-03-27 11:32 37.91758 -5.46454 19871 ft 370 kts 27°
2026-03-27 11:32 37.94085 -5.45029 20440 ft 372 kts 27°
2026-03-27 11:32 37.96422 -5.43596 20992 ft 374 kts 27°
2026-03-27 11:33 37.98773 -5.42154 21528 ft 377 kts 27°
2026-03-27 11:33 38.01145 -5.40699 22055 ft 380 kts 26°
2026-03-27 11:33 38.03532 -5.39232 22565 ft 382 kts 27°
2026-03-27 11:33 38.05929 -5.37755 23058 ft 385 kts 26°
2026-03-27 11:34 38.08344 -5.36270 23546 ft 387 kts 26°
2026-03-27 11:34 38.10777 -5.34775 23969 ft 390 kts 26°
2026-03-27 11:34 38.15681 -5.31757 24779 ft 394 kts 26°
2026-03-27 11:35 38.18156 -5.30228 25179 ft 396 kts 26°
2026-03-27 11:35 38.20636 -5.28699 25570 ft 397 kts 26°
2026-03-27 11:35 38.23161 -5.27141 25964 ft 399 kts 26°
2026-03-27 11:35 38.25672 -5.25588 26340 ft 401 kts 26°
2026-03-27 11:36 38.28186 -5.24031 26716 ft 403 kts 26°
2026-03-27 11:36 38.30709 -5.22469 27083 ft 405 kts 26°
2026-03-27 11:36 38.33253 -5.20892 27439 ft 407 kts 26°
2026-03-27 11:36 38.35804 -5.19308 27795 ft 409 kts 26°
2026-03-27 11:37 38.38374 -5.17713 28154 ft 411 kts 26°
2026-03-27 11:37 38.40949 -5.16116 28509 ft 413 kts 26°
2026-03-27 11:37 38.43540 -5.14506 28859 ft 415 kts 26°
2026-03-27 11:37 38.46139 -5.12889 29199 ft 417 kts 26°
2026-03-27 11:38 38.48855 -5.11425 29541 ft 420 kts 18°
2026-03-27 11:38 38.51701 -5.10574 29879 ft 422 kts
2026-03-27 11:38 38.54640 -5.10376 30325 ft 423 kts 359°
2026-03-27 11:38 38.57567 -5.10659 30728 ft 422 kts 357°
2026-03-27 11:39 38.60496 -5.10966 31125 ft 421 kts 357°
2026-03-27 11:39 38.63416 -5.11264 31530 ft 421 kts 358°
2026-03-27 11:39 38.66333 -5.11557 31918 ft 420 kts 358°
2026-03-27 11:39 38.69241 -5.11847 32321 ft 419 kts 358°
2026-03-27 11:40 38.72146 -5.12139 32719 ft 419 kts 358°
2026-03-27 11:40 38.75042 -5.12434 33111 ft 418 kts 358°
2026-03-27 11:40 38.77948 -5.12732 33498 ft 418 kts 358°
2026-03-27 11:40 38.80849 -5.13028 33891 ft 418 kts 358°
2026-03-27 11:41 38.83751 -5.13324 34079 ft 419 kts 358°
2026-03-27 11:41 38.86667 -5.13620 34112 ft 422 kts 358°
2026-03-27 11:41 38.92525 -5.14217 34102 ft 423 kts 358°
2026-03-27 11:42 38.98403 -5.14198 34108 ft 418 kts 12°
2026-03-27 11:42 39.03822 -5.11795 34106 ft 415 kts 30°
2026-03-27 11:43 39.08737 -5.07777 34105 ft 416 kts 33°
2026-03-27 11:43 39.13605 -5.03754 34103 ft 416 kts 33°
2026-03-27 11:44 39.18476 -4.99722 34106 ft 416 kts 33°
2026-03-27 11:44 39.23355 -4.95675 34103 ft 417 kts 32°
2026-03-27 11:45 39.28220 -4.91624 34108 ft 417 kts 32°
2026-03-27 11:45 39.33092 -4.87564 34107 ft 417 kts 32°
2026-03-27 11:46 39.37182 -4.84154 34109 ft 417 kts 32°
2026-03-27 11:46 39.42056 -4.80093 34111 ft 417 kts 32°
2026-03-27 11:47 39.46931 -4.76011 34116 ft 417 kts 32°
2026-03-27 11:47 39.51827 -4.71905 34114 ft 417 kts 32°
2026-03-27 11:48 39.56697 -4.67811 34109 ft 417 kts 32°
2026-03-27 11:48 39.61567 -4.63714 34122 ft 417 kts 32°
2026-03-27 11:49 39.66478 -4.59575 34129 ft 417 kts 32°
2026-03-27 11:50 39.73780 -4.53412 34125 ft 417 kts 32°
2026-03-27 11:50 39.78645 -4.49301 34133 ft 417 kts 32°
2026-03-27 11:51 39.83511 -4.45179 34134 ft 417 kts 32°
2026-03-27 11:51 39.88406 -4.41016 34127 ft 417 kts 32°
2026-03-27 11:52 39.93263 -4.36883 34126 ft 418 kts 32°
2026-03-27 11:52 39.98229 -4.32950 34123 ft 417 kts 24°
2026-03-27 11:53 40.03491 -4.29756 34123 ft 417 kts 24°
2026-03-27 11:53 40.08744 -4.26559 34122 ft 417 kts 24°
2026-03-27 11:54 40.14045 -4.23322 34130 ft 418 kts 24°
2026-03-27 11:54 40.19312 -4.20100 34119 ft 418 kts 24°
2026-03-27 11:55 40.24581 -4.16871 34122 ft 418 kts 24°
2026-03-27 11:55 40.29849 -4.13640 34122 ft 418 kts 24°
2026-03-27 11:56 40.35151 -4.10382 34128 ft 419 kts 24°
2026-03-27 11:56 40.40428 -4.07131 34123 ft 419 kts 24°
2026-03-27 11:57 40.45705 -4.03871 34123 ft 419 kts 24°
2026-03-27 11:57 40.50983 -4.00606 34122 ft 419 kts 24°
2026-03-27 11:58 40.56266 -3.97339 34129 ft 420 kts 24°
2026-03-27 11:58 40.61546 -3.94069 34133 ft 420 kts 24°
2026-03-27 11:59 40.66834 -3.90779 34146 ft 420 kts 24°
2026-03-27 11:59 40.72117 -3.87484 34144 ft 420 kts 25°
2026-03-27 12:00 40.77438 -3.84162 34147 ft 420 kts 24°
2026-03-27 12:00 40.82735 -3.80854 34148 ft 420 kts 24°
2026-03-27 12:01 40.88029 -3.77554 34142 ft 421 kts 24°
2026-03-27 12:01 40.93313 -3.74246 34133 ft 421 kts 24°
2026-03-27 12:02 40.98647 -3.70893 34142 ft 421 kts 24°
2026-03-27 12:02 41.03936 -3.67555 34153 ft 422 kts 24°
2026-03-27 12:03 41.09239 -3.64206 34158 ft 421 kts 24°
2026-03-27 12:03 41.14525 -3.60874 34171 ft 421 kts 24°
2026-03-27 12:04 41.19913 -3.57725 34184 ft 420 kts 21°
2026-03-27 12:04 41.25344 -3.54851 34172 ft 420 kts 20°
2026-03-27 12:05 41.30776 -3.51969 34168 ft 421 kts 21°
2026-03-27 12:05 41.36201 -3.49012 34176 ft 421 kts 21°
2026-03-27 12:06 41.41622 -3.46023 34175 ft 422 kts 21°
2026-03-27 12:06 41.47049 -3.43032 34174 ft 422 kts 21°
2026-03-27 12:07 41.52480 -3.40045 34177 ft 422 kts 21°
2026-03-27 12:07 41.57919 -3.37058 34171 ft 423 kts 21°
2026-03-27 12:08 41.63401 -3.34027 34173 ft 424 kts 21°
2026-03-27 12:08 41.68849 -3.31008 34176 ft 424 kts 21°
2026-03-27 12:09 41.74302 -3.27978 34184 ft 424 kts 21°
2026-03-27 12:09 41.79754 -3.24946 34192 ft 424 kts 21°
2026-03-27 12:10 41.85209 -3.21908 34198 ft 425 kts 21°
2026-03-27 12:10 41.87942 -3.20386 33958 ft 425 kts 21°
2026-03-27 12:10 41.90668 -3.18866 33689 ft 424 kts 21°
2026-03-27 12:10 41.92511 -3.17838 33513 ft 424 kts 21°
2026-03-27 12:11 41.95234 -3.16318 33250 ft 424 kts 21°
2026-03-27 12:11 41.97958 -3.14797 32984 ft 424 kts 21°
2026-03-27 12:11 42.00682 -3.13276 32753 ft 423 kts 21°
2026-03-27 12:11 42.03395 -3.11759 32498 ft 423 kts 21°
2026-03-27 12:12 42.06107 -3.10239 32232 ft 420 kts 21°
2026-03-27 12:12 42.08791 -3.08730 31732 ft 416 kts 21°
2026-03-27 12:12 42.11454 -3.07228 31202 ft 413 kts 21°
2026-03-27 12:12 42.14094 -3.05736 30671 ft 411 kts 21°
2026-03-27 12:13 42.16727 -3.04245 30086 ft 408 kts 21°
2026-03-27 12:13 42.19332 -3.02774 29513 ft 404 kts 21°
2026-03-27 12:13 42.21917 -3.01319 28956 ft 401 kts 21°
2026-03-27 12:13 42.24486 -2.99877 28392 ft 398 kts 21°
2026-03-27 12:14 42.27035 -2.98442 27834 ft 396 kts 21°
2026-03-27 12:14 42.29574 -2.97010 27267 ft 394 kts 21°
2026-03-27 12:14 42.32099 -2.95581 26712 ft 392 kts 21°
2026-03-27 12:14 42.34643 -2.94138 26149 ft 391 kts 21°
2026-03-27 12:15 42.37141 -2.92721 25597 ft 389 kts 21°
2026-03-27 12:15 42.39635 -2.91306 25042 ft 389 kts 21°
2026-03-27 12:15 42.42130 -2.89889 24491 ft 388 kts 21°
2026-03-27 12:15 42.44575 -2.88333 23930 ft 389 kts 28°
2026-03-27 12:16 42.46817 -2.86264 23275 ft 392 kts 37°
2026-03-27 12:16 42.48861 -2.83830 22691 ft 390 kts 39°
2026-03-27 12:16 42.50887 -2.81387 22132 ft 389 kts 39°
2026-03-27 12:16 42.52901 -2.78962 21586 ft 387 kts 39°
2026-03-27 12:17 42.54912 -2.76541 21041 ft 386 kts 39°
2026-03-27 12:17 42.56940 -2.74101 20520 ft 384 kts 39°
2026-03-27 12:17 42.58932 -2.71703 20000 ft 383 kts 39°
2026-03-27 12:17 42.60920 -2.69306 19490 ft 381 kts 39°
2026-03-27 12:18 42.62894 -2.66920 18971 ft 380 kts 39°
2026-03-27 12:18 42.64865 -2.64530 18424 ft 379 kts 40°
2026-03-27 12:18 42.66826 -2.62147 17854 ft 377 kts 40°
2026-03-27 12:18 42.68769 -2.59781 17309 ft 374 kts 40°
2026-03-27 12:19 42.70703 -2.57431 16748 ft 372 kts 40°
2026-03-27 12:19 42.72629 -2.55093 16180 ft 370 kts 40°
2026-03-27 12:19 42.74541 -2.52775 15595 ft 367 kts 40°
2026-03-27 12:19 42.76472 -2.50434 15002 ft 365 kts 40°
2026-03-27 12:20 42.78359 -2.48139 14409 ft 363 kts 40°
2026-03-27 12:20 42.80240 -2.45850 13781 ft 362 kts 40°
2026-03-27 12:20 42.82106 -2.43574 13166 ft 358 kts 40°
2026-03-27 12:20 42.83948 -2.41324 12564 ft 354 kts 40°
2026-03-27 12:21 42.85768 -2.39094 11974 ft 350 kts 40°
2026-03-27 12:21 42.87561 -2.36896 11424 ft 344 kts 40°
2026-03-27 12:21 42.89324 -2.34736 11047 ft 334 kts 40°
2026-03-27 12:21 42.91008 -2.32669 10919 ft 317 kts 39°
2026-03-27 12:22 42.92599 -2.30713 10802 ft 300 kts 40°
2026-03-27 12:22 42.94125 -2.28840 10683 ft 289 kts 39°
2026-03-27 12:22 42.95596 -2.27041 10552 ft 277 kts 38°
2026-03-27 12:22 42.97204 -2.25753 10438 ft 264 kts 15°
2026-03-27 12:23 42.98999 -2.25668 10265 ft 260 kts 349°
2026-03-27 12:23 43.00620 -2.26799 9913 ft 272 kts 324°
2026-03-27 12:23 43.01965 -2.28663 9485 ft 277 kts 320°
2026-03-27 12:23 43.03285 -2.30566 9158 ft 275 kts 320°
2026-03-27 12:24 43.04588 -2.32456 8605 ft 273 kts 319°
2026-03-27 12:24 43.05895 -2.34344 8175 ft 273 kts 319°
2026-03-27 12:24 43.07197 -2.36222 7753 ft 273 kts 319°
2026-03-27 12:24 43.08493 -2.38092 7313 ft 268 kts 319°
2026-03-27 12:25 43.09782 -2.39947 6914 ft 263 kts 319°
2026-03-27 12:25 43.11023 -2.41734 6530 ft 256 kts 319°
2026-03-27 12:25 43.12227 -2.43469 6166 ft 248 kts 317°
2026-03-27 12:25 43.13210 -2.45349 5996 ft 238 kts 302°
2026-03-27 12:26 43.13852 -2.47110 6005 ft 226 kts 301°
2026-03-27 12:26 43.14562 -2.49023 6004 ft 223 kts 302°
2026-03-27 12:26 43.15271 -2.50917 6010 ft 223 kts 302°
2026-03-27 12:26 43.15978 -2.52808 5991 ft 224 kts 302°
2026-03-27 12:27 43.16690 -2.54717 5759 ft 224 kts 302°
2026-03-27 12:27 43.17389 -2.56602 5543 ft 220 kts 301°
2026-03-27 12:27 43.18076 -2.58454 5331 ft 214 kts 301°
2026-03-27 12:27 43.18729 -2.60217 5140 ft 201 kts 301°
2026-03-27 12:28 43.19354 -2.61900 4985 ft 196 kts 301°
2026-03-27 12:28 43.19971 -2.63562 4892 ft 194 kts 301°
2026-03-27 12:28 43.20584 -2.65217 4755 ft 193 kts 301°
2026-03-27 12:28 43.21187 -2.66846 4477 ft 192 kts 300°
2026-03-27 12:29 43.21791 -2.68478 4170 ft 193 kts 300°
2026-03-27 12:29 43.22409 -2.70147 3869 ft 194 kts 300°
2026-03-27 12:29 43.23013 -2.71783 3563 ft 190 kts 300°
2026-03-27 12:29 43.23600 -2.73375 3276 ft 184 kts 301°
2026-03-27 12:30 43.24179 -2.74941 2989 ft 184 kts 300°
2026-03-27 12:30 43.24756 -2.76505 2696 ft 181 kts 300°
2026-03-27 12:30 43.25311 -2.78013 2419 ft 174 kts 301°
2026-03-27 12:30 43.25845 -2.79464 2149 ft 167 kts 301°
2026-03-27 12:31 43.26355 -2.80847 1894 ft 156 kts 300°
2026-03-27 12:31 43.26824 -2.82123 1649 ft 145 kts 300°
2026-03-27 12:31 43.27275 -2.83346 1422 ft 142 kts 300°
2026-03-27 12:31 43.27717 -2.84541 1223 ft 140 kts 299°
2026-03-27 12:32 43.28160 -2.85739 991 ft 140 kts 300°
2026-03-27 12:32 43.28592 -2.86932 757 ft 137 kts 299°
2026-03-27 12:32 43.29022 -2.88111 563 ft 136 kts 299°
2026-03-27 12:32 43.29452 -2.89273 336 ft 136 kts 301°
2026-03-27 12:33 43.29872 -2.90422 140 ft 134 kts 300°
2026-03-27 12:33 43.30240 -2.91405 132 ft 97 kts 295°
2026-03-27 12:33 43.30462 -2.92018 132 ft 52 kts 297°
2026-03-27 12:33 43.30587 -2.92364 133 ft 26 kts 296°
2026-03-27 12:34 43.30697 -2.92482 133 ft 21 kts 342°
2026-03-27 12:34 43.30799 -2.92480 132 ft 14 kts 57°
2026-03-27 12:34 43.30768 -2.92345 132 ft 16 kts 117°
2026-03-27 12:34 43.30712 -2.92194 132 ft 19 kts 117°
2026-03-27 12:35 43.30649 -2.92021 132 ft 22 kts 116°
2026-03-27 12:35 43.30577 -2.91824 132 ft 24 kts 116°
2026-03-27 12:35 43.30497 -2.91608 132 ft 27 kts 116°
2026-03-27 12:35 43.30412 -2.91371 132 ft 29 kts 117°
2026-03-27 12:36 43.30333 -2.91157 132 ft 16 kts 117°
2026-03-27 12:36 43.30302 -2.91065 132 ft 8 kts 99°
2026-03-27 12:36 43.30344 -2.91011 132 ft 10 kts 25°
2026-03-27 12:36 43.30402 -2.90968 132 ft 5 kts 47°
2026-03-27 12:37 43.30427 -2.90933 132 ft 6 kts 16°
2026-03-27 12:37 43.30459 -2.90934 132 ft 3 kts 355°
2026-03-27 12:37 43.30469 -2.90935 132 ft 1 kts 355°
2026-03-27 12:37 43.30478 -2.90936 132 ft 2 kts 355°
2026-03-27 12:38 43.30480 -2.90936 132 ft 0 kts 355°